C/2017 D2 ( Barros )

Japanese version
Home page
Updated on August 6, 2017

---------------------------------------------------------------------

* Profile

Discovery Date February 23, 2017
Magnitude 17.4 mag
Discoverer J. Barros (SONEAR Observatory at Oliveira)

* Pictures

* Orbital Elements

Epoch 2017 July 26.0 TT = JDT 2457960.5
T 2017 July 14.53652 TT                                 MPCW
q   2.4858170            (2000.0)            P               Q
z  +0.0007613      Peri.  334.34149     +0.60947913     +0.75192076
 +/-0.0000223      Node   331.04088     -0.60815108     +0.24006660
e   0.9981076      Incl.   31.26591     -0.50861327     +0.61398958
From 121 observations 2017 Feb. 23-July 6, mean residual 0".5.

* Finding Charts

* Magnitudes Graph

        m1 = 11.0 + 5 log d + 10.0 log r(t + 100)

---------------------------------------------------------------------

The orbital elements are published on M.P.E.C. 2017-N58.
The charts are made with StellaNavigator Ver.10 (AstroArts).
The magnitudes graphs are made with Comet for Windows.

---------------------------------------------------------------------

Copyright(C) Seiichi Yoshida (comet@aerith.net). All rights reserved.